sat.trackr.live / text

‹ back to catalog

PODSAT

NORAD 43229 · 2018-023B

PAYLOAD ACTIVE UNKNOWN

§ Identity

Operator
Country
US
Launch date
2018-03-06
Launch site
AFETR
Launch vehicle
Mass (kg)
RCS (m²)

External: N2YO · Heavens-Above · Gunter

§ Orbital elements

Epoch: 2026-05-25T03:47:33.167328Z

Period
168.64 min
Inclination
26.8137°
Eccentricity
0.3497876
Mean motion
8.53877009 rev/d
Perigee alt
196.3 km
Apogee alt
7,269.9 km
Semi-major
10,111.3 km
B*
7.1089e-4
RAAN
170.0244°
Arg perigee
36.9889°
Mean anomaly
342.7127°
Rev number
19,080

§ Raw data

PODSAT1 43229U 18023B   26145.15802277  .00084747 -41089-6  71089-3 0  99912 43229  26.8137 170.0244 3497876  36.9889 342.7127  8.53877009190805

JSON: /api/v1/satellites/43229 · /tle

For live sub-satellite position, see the globe view (requires WebGL).

§ Visibility from observer

Set your observer location to see the next 7 days of passes ≥ 10°. The values pass through the URL so the page stays shareable.

No JS? Fill the form by hand. The geolocation button needs JavaScript.